• In Uzbekistan
  • List of Countries
  • For 7 days
  • Water Temperature
  • Satellite Maps
  • Weather Map
  • Weather Widgets
  • user-avatar
    Login

    Hourly Weather Turya

    Today, 18 October, Thursday

    Time Temperature Precipitation Wind Pressure Humidity
    00:00 +4°C° 0 mm 2 mps 755 mmHg 83%
    01:00 +4°C° 0 mm 2 mps 755 mmHg 84%
    02:00 +4°C° 0 mm 2 mps 755 mmHg 86%
    03:00 +3°C° 0 mm 2 mps 754 mmHg 88%
    04:00 +3°C° 0 mm 2 mps 754 mmHg 90%
    05:00 +3°C° 0 mm 1 mps 753 mmHg 92%
    06:00 +3°C° 0 mm 1 mps 753 mmHg 94%
    07:00 +2°C° 0 mm 2 mps 753 mmHg 91%
    08:00 +3°C° 0 mm 2 mps 752 mmHg 89%
    09:00 +3°C° 0 mm 3 mps 751 mmHg 86%
    10:00 +3°C° 0.2 mm 3 mps 750 mmHg 85%
    11:00 +3°C° 0.2 mm 3 mps 750 mmHg 83%
    12:00 +4°C° 0.2 mm 4 mps 749 mmHg 82%
    13:00 +4°C° 0.6 mm 4 mps 748 mmHg 84%
    14:00 +4°C° 0.6 mm 4 mps 747 mmHg 86%
    15:00 +4°C° 0.6 mm 4 mps 747 mmHg 88%
    16:00 +4°C° 0.3 mm 4 mps 746 mmHg 89%
    17:00 +4°C° 0.3 mm 3 mps 745 mmHg 91%
    18:00 +4°C° 0.3 mm 3 mps 745 mmHg 93%
    19:00 +5°C° 0.1 mm 3 mps 744 mmHg 94%
    20:00 +7°C° 0.1 mm 3 mps 744 mmHg 94%
    21:00 +8°C° 0.1 mm 3 mps 744 mmHg 95%
    22:00 +8°C° 0 mm 3 mps 744 mmHg 95%
    23:00 +8°C° 0 mm 3 mps 744 mmHg 95%

    Tomorrow, 19 October, Friday

    Time Temperature Precipitation Wind Pressure Humidity
    00:00 +8°C° 0 mm 3 mps 744 mmHg 95%
    01:00 +8°C° 0 mm 3 mps 744 mmHg 95%
    02:00 +8°C° 0 mm 2 mps 744 mmHg 96%
    03:00 +8°C° 0 mm 2 mps 744 mmHg 96%
    04:00 +8°C° 0.2 mm 2 mps 743 mmHg 97%
    05:00 +8°C° 0.2 mm 2 mps 742 mmHg 97%
    06:00 +8°C° 0.2 mm 2 mps 742 mmHg 97%
    07:00 +8°C° 0.8 mm 3 mps 741 mmHg 95%
    08:00 +8°C° 0.8 mm 3 mps 740 mmHg 94%
    09:00 +8°C° 0.8 mm 4 mps 739 mmHg 92%
    10:00 +8°C° 0.5 mm 4 mps 739 mmHg 90%
    11:00 +8°C° 0.5 mm 4 mps 738 mmHg 88%
    12:00 +8°C° 0.5 mm 5 mps 738 mmHg 86%
    13:00 +8°C° 0.1 mm 5 mps 738 mmHg 85%
    14:00 +8°C° 0.1 mm 5 mps 738 mmHg 83%
    15:00 +8°C° 0.1 mm 5 mps 738 mmHg 81%
    16:00 +7°C° 0.1 mm 5 mps 739 mmHg 81%
    17:00 +7°C° 0.1 mm 5 mps 739 mmHg 81%
    18:00 +6°C° 0.1 mm 5 mps 740 mmHg 81%
    19:00 +6°C° 0.2 mm 5 mps 740 mmHg 81%
    20:00 +5°C° 0.2 mm 5 mps 741 mmHg 80%
    21:00 +5°C° 0.2 mm 5 mps 741 mmHg 80%
    22:00 +4°C° 0.1 mm 4 mps 742 mmHg 81%
    23:00 +4°C° 0.1 mm 4 mps 742 mmHg 81%

    Day after tomorrow, 20 October, Saturday

    Time Temperature Precipitation Wind Pressure Humidity
    00:00 +3°C° 0.1 mm 4 mps 742 mmHg 82%
    01:00 +3°C° 0.1 mm 3 mps 742 mmHg 85%
    02:00 +3°C° 0.1 mm 3 mps 742 mmHg 87%
    03:00 +2°C° 0.1 mm 3 mps 743 mmHg 90%
    04:00 +2°C° 0.1 mm 3 mps 743 mmHg 90%
    05:00 +2°C° 0.1 mm 3 mps 743 mmHg 91%
    06:00 +3°C° 0.1 mm 2 mps 743 mmHg 91%
    07:00 +3°C° 0.1 mm 2 mps 743 mmHg 89%
    08:00 +2°C° 0.1 mm 3 mps 743 mmHg 87%
    09:00 +3°C° 0.1 mm 3 mps 744 mmHg 86%
    10:00 +3°C° 0 mm 3 mps 744 mmHg 82%
    11:00 +3°C° 0 mm 3 mps 745 mmHg 78%
    12:00 +3°C° 0 mm 3 mps 745 mmHg 75%
    13:00 +3°C° 0 mm 3 mps 745 mmHg 75%
    14:00 +3°C° 0 mm 3 mps 746 mmHg 75%
    15:00 +2°C° 0 mm 3 mps 746 mmHg 75%
    16:00 +2°C° 0 mm 3 mps 747 mmHg 76%
    17:00 +2°C° 0 mm 3 mps 747 mmHg 77%
    18:00 +1°C° 0 mm 3 mps 748 mmHg 78%
    19:00 +1°C° 0 mm 3 mps 748 mmHg 79%
    20:00 +1°C° 0 mm 3 mps 749 mmHg 79%
    21:00 +1°C° 0 mm 3 mps 749 mmHg 79%
    22:00 +1°C° 0 mm 2 mps 749 mmHg 79%
    23:00 +1°C° 0 mm 2 mps 750 mmHg 78%

    21 October, Sunday

    Time Temperature Precipitation Wind Pressure Humidity
    00:00 +1°C° 0 mm 2 mps 750 mmHg 77%
    01:00 +1°C° 0 mm 2 mps 750 mmHg 76%
    02:00 +1°C° 0 mm 2 mps 751 mmHg 75%
    03:00 -1°C° 0 mm 2 mps 751 mmHg 74%
    04:00 -1°C° 0 mm 2 mps 752 mmHg 74%
    05:00 -1°C° 0 mm 2 mps 752 mmHg 74%
    06:00 -1°C° 0 mm 2 mps 752 mmHg 74%
    07:00 -1°C° 0 mm 2 mps 753 mmHg 74%
    08:00 -1°C° 0 mm 2 mps 753 mmHg 74%
    09:00 -1°C° 0 mm 2 mps 753 mmHg 73%
    10:00 +1°C° 0 mm 2 mps 754 mmHg 71%
    11:00 +1°C° 0 mm 2 mps 754 mmHg 69%
    12:00 +2°C° 0 mm 2 mps 754 mmHg 66%
    13:00 +2°C° 0 mm 2 mps 754 mmHg 67%
    14:00 +3°C° 0 mm 1 mps 755 mmHg 67%
    15:00 +3°C° 0 mm 1 mps 755 mmHg 68%
    16:00 +2°C° 0 mm 1 mps 755 mmHg 70%
    17:00 +2°C° 0 mm 1 mps 755 mmHg 72%
    18:00 +1°C° 0 mm 1 mps 755 mmHg 75%
    19:00 +1°C° 0 mm 1 mps 755 mmHg 77%
    20:00 0°C° 0 mm 1 mps 755 mmHg 78%
    21:00 0°C° 0 mm 1 mps 755 mmHg 80%
    22:00 0°C° 0 mm 1 mps 755 mmHg 81%
    23:00 0°C° 0 mm 1 mps 755 mmHg 83%

    22 October, Monday

    Time Temperature Precipitation Wind Pressure Humidity
    00:00 0°C° 0 mm 1 mps 755 mmHg 84%
    01:00 0°C° 0 mm 1 mps 755 mmHg 85%
    02:00 0°C° 0 mm 1 mps 755 mmHg 86%
    03:00 0°C° 0 mm 1 mps 754 mmHg 87%
    04:00 -2°C° 0 mm 2 mps 754 mmHg 88%
    05:00 -2°C° 0 mm 2 mps 754 mmHg 89%
    06:00 -2°C° 0 mm 2 mps 753 mmHg 90%
    07:00 -1°C° 0 mm 3 mps 753 mmHg 88%
    08:00 0°C° 0 mm 3 mps 752 mmHg 86%
    09:00 -1°C° 0 mm 4 mps 752 mmHg 84%
    10:00 0°C° 0.3 mm 4 mps 751 mmHg 84%
    11:00 0°C° 0.3 mm 4 mps 750 mmHg 83%
    12:00 +1°C° 0.3 mm 5 mps 750 mmHg 82%
    13:00 +1°C° 0.3 mm 5 mps 749 mmHg 84%
    14:00 +1°C° 0.3 mm 5 mps 748 mmHg 85%
    15:00 +1°C° 0.3 mm 5 mps 748 mmHg 86%
    16:00 +2°C° 0.3 mm 5 mps 747 mmHg 86%
    17:00 +2°C° 0.3 mm 5 mps 746 mmHg 86%
    18:00 +2°C° 0.3 mm 5 mps 745 mmHg 86%
    19:00 +2°C° 0.3 mm 6 mps 744 mmHg 85%
    20:00 +2°C° 0.3 mm 6 mps 744 mmHg 85%
    21:00 +2°C° 0.3 mm 6 mps 743 mmHg 84%
    22:00 +2°C° 0.7 mm 6 mps 742 mmHg 84%
    23:00 +2°C° 0.7 mm 6 mps 741 mmHg 84%

    23 October, Tuesday

    Time Temperature Precipitation Wind Pressure Humidity
    00:00 +2°C° 0.7 mm 6 mps 741 mmHg 84%
    01:00 +2°C° 0.3 mm 6 mps 741 mmHg 85%
    02:00 +2°C° 0.3 mm 5 mps 740 mmHg 85%
    03:00 +3°C° 0.3 mm 5 mps 740 mmHg 85%
    04:00 +3°C° 0.1 mm 5 mps 740 mmHg 85%
    05:00 +3°C° 0.1 mm 5 mps 740 mmHg 85%
    06:00 +3°C° 0.1 mm 5 mps 740 mmHg 86%
    07:00 +4°C° 0.1 mm 4 mps 740 mmHg 86%
    08:00 +4°C° 0.1 mm 4 mps 741 mmHg 86%
    09:00 +4°C° 0.1 mm 4 mps 741 mmHg 86%
    10:00 +5°C° 0.2 mm 4 mps 741 mmHg 84%
    11:00 +5°C° 0.2 mm 4 mps 741 mmHg 82%
    12:00 +5°C° 0.2 mm 4 mps 741 mmHg 80%
    13:00 +5°C° 0.6 mm 4 mps 742 mmHg 80%
    14:00 +5°C° 0.6 mm 5 mps 742 mmHg 80%
    15:00 +3°C° 0.6 mm 5 mps 742 mmHg 80%
    16:00 +4°C° 0.2 mm 4 mps 743 mmHg 80%
    17:00 +3°C° 0.2 mm 4 mps 743 mmHg 80%
    18:00 +1°C° 0.2 mm 4 mps 744 mmHg 80%
    19:00 +2°C° 0 mm 3 mps 744 mmHg 81%
    20:00 +2°C° 0 mm 3 mps 745 mmHg 83%
    21:00 +1°C° 0 mm 3 mps 746 mmHg 84%
    22:00 +1°C° 0 mm 3 mps 746 mmHg 86%
    23:00 +1°C° 0 mm 3 mps 746 mmHg 89%
    Show more